Weather Service Report


442 
ASUS45 KREV 251010
RWRNV 
NEVADA REGIONAL WEATHER ROUNDUP
NATIONAL WEATHER SERVICE RENO NV
300 AM PDT TUE APR 25 2017

NOTE: "FAIR" INDICATES FEW OR NO CLOUDS BELOW 12,000 FEET WITH NO
SIGNIFICANT WEATHER AND/OR OBSTRUCTIONS TO VISIBILITY.

NVZ001-003-004-251100-
WESTERN NEVADA
  
CITY           SKY/WX    TMP DP  RH WIND       PRES   REMARKS
RENO           PTCLDY    45  28  51 NW13      29.96S                  
CARSON CITY    FAIR      41  25  52 W5        29.97R                  
MINDEN         FAIR      45  23  42 W16G36    29.96R                  
FALLON         CLOUDY    47  28  47 W9        29.93R                  
LOVELOCK       MOCLDY    42  33  70 N12       29.93R                  
HAWTHORNE      CLEAR     48  25  40 NW15      29.91R                  
$$

NVZ002-CAZ072-073-251100-
NORTHERN AND CENTRAL SIERRA
  
CITY           SKY/WX    TMP DP  RH WIND       PRES   REMARKS
S. LAKE TAHOE  MOCLDY    32  28  85 CALM      29.99F                  
TRUCKEE        MOCLDY    32  30  93 SE7       29.99F                  
SQUAW VLY 8000   N/A     27  27 100 W9          N/A                   
SUSANVILLE     CLEAR     39  32  75 W10       29.98S                  
MAMMOTH LAKES  FAIR      40  19  42 W14G22    29.92F                  
BRIDGEPORT       N/A     36  16  44 SW8       29.94S                  
$$

NVZ030-031-036-251100-
NORTHERN NEVADA
  
CITY           SKY/WX    TMP DP  RH WIND       PRES   REMARKS
ELKO           CLOUDY    37  32  82 W5        29.85F                  
WINNEMUCCA     MOCLDY    37  36  96 SW6       29.91F                  
WENDOVER       CLOUDY    44  34  67 W12       29.78                   
$$

NVZ035-037-251100-
CENTRAL NEVADA
  
CITY           SKY/WX    TMP DP  RH WIND       PRES   REMARKS
ELY            PTCLDY    33  27  78 W5        29.83F                  
EUREKA           N/A     37  27  67 W15G23    29.86S                  
$$

NVZ013-014-251100-
SOUTH CENTRAL NEVADA
  
CITY           SKY/WX    TMP DP  RH WIND       PRES   REMARKS
TONOPAH        PTCLDY    43  25  49 N13       29.87S                  
$$

NVZ017-020-022-251100-
SOUTHERN NEVADA
  
CITY           SKY/WX    TMP DP  RH WIND       PRES   REMARKS
LAS VEGAS      MOCLDY    70  14  11 N22G37    29.65R                  
N. LAS VEGAS   MOCLDY    69  14  12 NW30G38   29.62F                  
NELLIS AFB     MOCLDY    71  22  15 CALM      29.62S                  
HENDERSON      MOCLDY    63  36  36 SW9       29.69S                  
MERCURY        MOCLDY    60  18  19 NE9       29.75R                  
$$
  

Return to Home page


Western Regional Climate Center, wrcc@dri.edu